Weather History for KPHL - May, 2014

Change the Weather History Date:

Thursday, May 8, 2014

  Actual Average Record
Temperature  
Mean Temperature 63 °F 61 °F  
Max Temperature 70 °F 71 °F 93 °F (1936)
Min Temperature 55 °F 51 °F 37 °F (1947)
Degree Days  
Heating Degree Days 2 5  
Month to date heating degree days 31 46  
Since 1 July heating degree days 4827 4536  
Cooling Degree Days 0 1  
Month to date cooling degree days 6 8  
Year to date cooling degree days 15 21  
Growing Degree Days 12 (Base 50)    
Moisture  
Dew Point 52 °F    
Average Humidity 74    
Maximum Humidity 86    
Minimum Humidity 61    
Precipitation  
Precipitation 0.03 in 0.12 in 1.42 in (1998)
Month to date precipitation 0.16 0.89  
Year to date precipitation 19.75 13.92  
Snow  
Snow 0.00 in 0.00 in T in (1947)
Month to date snowfall 0.0 0.0  
Since 1 July snowfall 68.0 22.4  
Snow Depth 0.00 in    
Sea Level Pressure  
Sea Level Pressure 30.14 in    
Wind  
Wind Speed 7 mph (East)    
Max Wind Speed 14 mph    
Max Gust Speed 19 mph    
Visibility 8 miles    
Events Rain    
T = Trace of Precipitation, MM = Missing Value Source: NWS Daily Summary

Daily Weather History Graph

Daily Weather History Graph

Search for Another Location

Airport or City:

Trip Planner

Search our weather history database for the weather conditions in past years. The results will help you decide how hot, cold, wet, or windy it might be!

Date:

Astronomy

May. 08, 2014 Rise Set
Actual Time 5:53 AM EDT 8:02 PM EDT
Civil Twilight 5:23 AM EDT 8:32 PM EDT
Nautical Twilight 4:46 AM EDT 9:09 PM EDT
Astronomical Twilight 4:06 AM EDT 9:49 PM EDT
Moon 2:01 PM EDT (5/8) 2:22 AM EDT (5/8)
Length of Visible Light 15h 09m
Length of Day
14h 09m
Waxing Gibbous, 64% of the Moon is Illuminated
May 8
Waxing Gibbous
May 14
Full
May 21
Last Quarter
May 28
New
Jun 5
First Quarter

Hourly Weather History & Observations

Time (EDT) Temp. Dew Point Humidity Pressure Visibility Wind Dir Wind Speed Gust Speed Precip Events Conditions
12:54 AM 55.9 °F 46.0 °F 69% 30.19 in 10.0 mi South 3.5 mph - N/A   Overcast
1:22 AM 57.0 °F 46.0 °F 67% 30.18 in 10.0 mi ESE 3.5 mph - 0.00 in Rain Light Rain
1:50 AM 55.4 °F 46.4 °F 72% 30.16 in 10.0 mi Calm Calm - 0.00 in   Overcast
1:54 AM 55.9 °F 46.9 °F 72% 30.16 in 10.0 mi SE 3.5 mph - 0.00 in   Overcast
2:54 AM 57.0 °F 46.0 °F 67% 30.17 in 10.0 mi ENE 4.6 mph - N/A   Overcast
3:28 AM 57.0 °F 46.9 °F 69% 30.16 in 10.0 mi ENE 4.6 mph - N/A   Overcast
3:54 AM 57.0 °F 46.9 °F 69% 30.16 in 10.0 mi ENE 6.9 mph - 0.00 in   Overcast
4:54 AM 57.0 °F 48.9 °F 74% 30.15 in 10.0 mi East 4.6 mph - 0.01 in   Overcast
5:54 AM 55.0 °F 48.9 °F 80% 30.15 in 10.0 mi East 6.9 mph - 0.02 in   Overcast
6:42 AM 55.0 °F 50.0 °F 83% 30.16 in 10.0 mi East 6.9 mph - N/A   Overcast
6:54 AM 55.0 °F 50.0 °F 83% 30.17 in 10.0 mi East 6.9 mph - N/A   Overcast
7:27 AM 55.0 °F 50.0 °F 83% 30.17 in 10.0 mi East 5.8 mph - N/A   Overcast
7:54 AM 55.9 °F 51.1 °F 84% 30.17 in 10.0 mi East 6.9 mph - N/A   Overcast
8:14 AM 55.9 °F 51.1 °F 84% 30.17 in 10.0 mi East 6.9 mph - N/A   Overcast
8:31 AM 55.0 °F 50.0 °F 83% 30.17 in 7.0 mi East 8.1 mph - N/A   Overcast
8:54 AM 55.0 °F 50.0 °F 83% 30.18 in 7.0 mi ENE 5.8 mph - N/A   Overcast
9:04 AM 55.0 °F 50.0 °F 83% 30.18 in 6.0 mi East 5.8 mph - N/A   Haze
9:18 AM 55.0 °F 50.0 °F 83% 30.18 in 4.0 mi ENE 4.6 mph - N/A   Haze
9:54 AM 55.9 °F 51.1 °F 84% 30.16 in 3.0 mi East 5.8 mph - N/A   Haze
10:03 AM 55.9 °F 51.1 °F 84% 30.14 in 2.0 mi ESE 8.1 mph - N/A   Haze
10:08 AM 57.0 °F 52.0 °F 83% 30.14 in 2.0 mi ESE 8.1 mph - N/A   Haze
10:16 AM 57.0 °F 52.0 °F 83% 30.14 in 4.0 mi ESE 8.1 mph - N/A   Haze
10:22 AM 57.0 °F 52.0 °F 83% 30.14 in 6.0 mi East 6.9 mph - N/A   Haze
10:54 AM 57.9 °F 52.0 °F 81% 30.14 in 6.0 mi East 5.8 mph - N/A   Haze
11:05 AM 57.9 °F 52.0 °F 81% 30.14 in 7.0 mi ENE 4.6 mph - N/A   Overcast
11:20 AM 59.0 °F 52.0 °F 78% 30.13 in 8.0 mi East 4.6 mph - N/A   Overcast
11:54 AM 60.1 °F 53.1 °F 78% 30.12 in 9.0 mi ESE 3.5 mph - N/A   Overcast
12:11 PM 60.1 °F 52.0 °F 75% 30.12 in 10.0 mi NNE 4.6 mph - N/A   Overcast
12:54 PM 62.1 °F 53.1 °F 72% 30.12 in 10.0 mi Variable 3.5 mph - N/A   Overcast
1:03 PM 63.0 °F 53.1 °F 70% 30.12 in 8.0 mi Calm Calm - N/A   Overcast
1:54 PM 64.9 °F 53.1 °F 65% 30.11 in 8.0 mi NW 4.6 mph - N/A   Overcast
2:09 PM 64.9 °F 54.0 °F 68% 30.11 in 8.0 mi Variable 3.5 mph - N/A   Overcast
2:54 PM 68.0 °F 55.0 °F 63% 30.09 in 8.0 mi Variable 5.8 mph - N/A   Mostly Cloudy
3:19 PM 68.0 °F 54.0 °F 61% 30.09 in 8.0 mi NNW 3.5 mph - N/A   Scattered Clouds
3:54 PM 69.1 °F 55.0 °F 61% 30.08 in 8.0 mi ESE 6.9 mph - N/A   Scattered Clouds
4:54 PM 70.0 °F 55.0 °F 59% 30.06 in 8.0 mi East 10.4 mph - N/A   Scattered Clouds
5:54 PM 69.1 °F 55.0 °F 61% 30.06 in 9.0 mi East 10.4 mph - N/A   Scattered Clouds
6:41 PM 68.0 °F 55.0 °F 63% 30.07 in 10.0 mi East 8.1 mph - N/A   Scattered Clouds
6:54 PM 66.9 °F 55.0 °F 66% 30.08 in 10.0 mi East 9.2 mph - N/A   Scattered Clouds
7:54 PM 64.0 °F 54.0 °F 70% 30.10 in 10.0 mi East 9.2 mph - N/A   Mostly Cloudy
8:54 PM 62.1 °F 54.0 °F 75% 30.12 in 10.0 mi East 9.2 mph - N/A   Mostly Cloudy
9:34 PM 62.1 °F 54.0 °F 75% 30.13 in 10.0 mi East 11.5 mph - N/A   Mostly Cloudy
9:43 PM 61.0 °F 54.0 °F 78% 30.14 in 10.0 mi East 10.4 mph - N/A   Mostly Cloudy
9:54 PM 61.0 °F 54.0 °F 78% 30.14 in 10.0 mi East 11.5 mph - N/A   Mostly Cloudy
10:15 PM 60.1 °F 54.0 °F 80% 30.15 in 7.0 mi ENE 6.9 mph - N/A   Overcast
10:54 PM 60.1 °F 53.1 °F 78% 30.14 in 7.0 mi East 12.7 mph - N/A   Overcast
11:08 PM 59.0 °F 53.1 °F 81% 30.15 in 6.0 mi East 11.5 mph - N/A   Haze
11:20 PM 59.0 °F 53.1 °F 81% 30.15 in 7.0 mi East 12.7 mph - N/A   Overcast
11:54 PM 57.9 °F 52.0 °F 81% 30.16 in 8.0 mi East 9.2 mph - N/A   Overcast